Tracking 20037 objects as of 17-Nov-2019
Live streaming from Space Station
objects crossing your sky now

BRICSAT 2 (NO-103)

Track BRICSAT 2 (NO-103) now!
10-day predictions
BRICSAT 2 (NO-103) is classified as:


NORAD ID: 44355
Int'l Code: 2019-036S
Perigee: 311.7 km
Apogee: 829.8 km
Inclination: 28.5 °
Period: 95.9 minutes
Semi major axis: 6941 km
RCS: Unknown
Launch date: June 25, 2019
Source: United States (US)
Launch site: AIR FORCE EASTERN TEST RANGE (AFETR)

Uplink (MHz): 28.120/145.825
Downlink (MHz): 145.825/435.350
Beacon (MHz): 437.605
Mode: 1k2/9k6 FSK
Call sign: USNAP1-1
Status: Active

aabbcc
Your satellite tracking list
Your tracking list is empty




NASA's NSSDC Master Catalog

Two Line Element Set (TLE):
1 44355U 19036S   19320.41473975 +.00015884 +00000-0 +24012-3 0  9993
2 44355 028.5335 340.9612 0373186 193.7441 165.2743 15.01079256021637
Source of the keplerian elements: AFSPC